Weather in Trudovoe

Russia / Primorsky Krai     43°18′01″N   132°03′47″E
temp.,
°C
wind,
m/s
gust,
m/s
humid.,
%
clouds,
%
prec.,
mm/h
press.,
hPa
HPBL,
m
6 march, sat
sat601:00−12n1015520 0.0 10311102
04:00−14n813570 0.0 10331068
07:00−15n713570 0.0 1036997
10:00−13n812530 0.0 10371077
13:00−11n710500 0.0 10361027
16:00−8n69480 0.0 10341034
19:00−9nne46560 0.0 1034436
22:00−10ne24630 0.0 1035133
7 march, sun
sun701:00−11n12680 0.0 103429
04:00−12nnw11700 0.0 103321
07:00−12e11690 0.0 103221
10:00−9sse12570 0.0 1031195
13:00−5s35640 0.0 1029488
16:00−3s57730 0.0 1026552
19:00−4sse35850 0.0 1025120
22:00−5s22890 0.0 102721
8 march, mon
mon801:00−6n22870 0.0 102727
04:00−6nne37790 0.0 1028166
07:00−7nne35750 0.0 1029100
10:00−5n36660 0.0 1030315
13:00−1n24500 0.0 1030508
16:00+1w11460 0.0 1027414
19:00−3ssw33690 0.0 102642
22:00−4s347211 0.0 102784
9 march, tue
tue901:00−4sse34790 0.0 102579
04:00−2sse368144 0.0 1023200
07:00−1sse4894100 0.0 1021238
10:00+1s6119395 0.0 1020445
13:00+2s6108370 0.0 1016400
16:00+2sse697968 0.0 1014285
19:000ssw018860 0.0 101539
22:00−1nw5125048 0.0 1019750
10 march, wed
wed1001:00−2nw412540 0.0 1020679
04:00−2nnw614550 0.0 1022715
07:00−2nnw614520 0.0 1026609
10:00−1nnw712440 0.0 1028751
13:00+2n610380 0.0 1028903
16:00+3n47380 0.0 1027694
19:00−1ene23510 0.0 102722
22:00−2s125737 0.0 102821